GFSMW_850_spd_000.txt.gz
Wind_Speed
10 5 5 14 14 9 8 10 11 12 16 16 17 19 22 23 24 26 26 23 24 27 23 20 19 18 16 13 13 13 14 12 14 20 23 23 22 24 27 15 16 18 17
9 9 6 4 4 6 7 8 9 10 13 14 17 19 23 25 27 25 23 26 29 29 27 26 26 22 18 18 17 17 14 11 13 17 20 20 34 28 27 30 28 25 25
5 3 1 4 6 7 6 5 6 11 14 16 16 20 24 28 31 32 32 30 29 34 31 31 29 27 23 22 21 21 16 15 12 12 14 18 19 39 32 31 29 25 28
7 5 4 4 6 5 7 7 8 12 14 20 22 25 27 30 31 32 33 31 33 30 32 30 29 26 24 23 21 20 17 16 16 17 17 21 25 32 34 32 32 30 30
5 2 1 2 2 3 5 7 10 14 16 20 24 29 33 38 37 37 36 36 34 36 30 30 33 32 30 24 19 16 18 19 16 16 21 25 30 34 36 38 34 39 33
0 2 2 2 1 1 2 4 5 9 14 20 26 28 33 36 37 38 41 43 38 39 31 30 36 31 29 30 29 27 23 23 24 24 30 33 32 32 33 35 36 34 36
3 3 4 4 3 5 7 10 17 24 29 35 33 36 42 36 33 33 30 38 39 31 30 30 28 26 21 19 18 23 24 24 28 34 27 30 32 31 31 34 37 33 32
6 3 2 4 4 9 14 18 20 25 29 31 37 40 32 34 36 34 32 33 35 26 27 23 20 15 15 20 19 23 30 35 23 26 29 32 33 34 33 34 35 36 32
10 12 11 11 12 15 18 22 26 31 36 39 33 27 31 35 35 31 28 23 28 30 26 19 24 23 27 27 30 26 22 20 25 28 29 31 32 33 33 33 33 34 32
12 9 9 5 10 20 27 32 36 37 34 30 29 30 32 33 31 21 15 18 21 18 13 21 19 21 22 13 14 16 20 25 27 30 32 34 34 34 34 34 34 35 37
10 12 13 13 19 25 29 28 33 30 30 30 33 31 31 31 24 16 13 15 16 12 18 18 14 13 13 14 19 23 26 29 32 33 35 36 35 35 34 34 34 36 36
9 8 14 22 28 30 31 33 32 31 30 32 37 32 29 24 18 15 13 13 12 8 10 11 11 14 18 21 24 27 30 32 34 34 33 34 33 33 34 35 37 38 39
10 14 22 29 32 35 30 32 29 28 30 40 36 29 24 17 15 14 14 13 10 11 9 12 16 19 22 26 27 30 30 30 31 32 32 34 34 36 37 37 37 36 36
14 21 28 33 30 32 31 30 29 30 39 40 34 20 16 14 14 13 11 9 7 12 15 17 21 24 26 28 31 30 31 33 31 31 30 31 33 34 36 36 37 37 39
18 27 30 34 32 31 29 30 27 35 39 36 25 16 16 16 13 9 9 11 13 11 16 22 24 25 29 29 31 31 30 31 34 37 40 42 43 43 43 43 45 46 48
27 32 30 30 31 30 27 26 33 36 31 23 17 13 14 15 17 18 21 8 9 13 20 23 26 28 30 30 27 28 31 34 38 43 46 48 48 46 46 46 42 38 38
31 35 32 29 28 30 28 32 31 25 17 15 11 10 12 12 13 7 4 8 14 20 24 25 28 29 24 25 27 32 37 40 42 38 35 33 30 29 30 31 30 30 31
32 33 29 29 27 30 31 27 16 12 9 7 8 8 7 9 8 10 13 19 23 24 27 27 25 26 26 30 32 34 40 36 33 29 29 31 32 32 32 32 33 32 32
29 24 23 23 31 29 24 16 15 13 7 5 4 6 9 13 19 26 25 23 25 26 25 26 27 28 27 29 36 35 30 28 29 31 33 32 31 32 31 34 35 38 36
19 17 22 29 27 20 16 13 6 6 8 11 14 17 18 16 17 20 22 23 22 24 25 25 23 24 32 34 29 23 23 28 29 29 29 27 28 29 27 28 31 34 36
21 26 29 30 18 16 13 8 3 5 10 16 18 16 19 20 21 20 19 21 22 23 23 25 27 30 28 25 22 21 20 23 28 29 30 30 27 25 26 25 27 31 30
26 30 28 13 15 19 7 4 12 18 14 15 19 19 19 19 18 19 20 20 20 22 25 29 31 26 24 22 22 17 19 22 24 28 28 27 25 24 24 22 23 23 26
31 24 14 11 13 12 13 13 15 12 15 19 19 20 19 18 19 19 18 19 21 24 27 25 27 28 27 26 20 18 21 20 21 24 24 21 24 20 18 17 18 18 20
23 15 11 12 9 12 15 15 16 15 17 18 19 20 20 19 17 16 19 20 21 21 21 26 26 27 29 26 20 25 24 19 18 20 19 16 18 13 13 13 13 14 14
19 18 20 12 11 14 17 16 16 16 17 19 21 20 18 16 16 20 17 17 16 18 22 23 22 26 28 22 22 22 18 16 17 16 21 18 18 15 13 12 10 7 8
22 16 11 13 15 18 17 17 16 16 18 20 21 18 16 16 18 22 18 14 18 19 20 17 19 22 18 18 21 19 13 13 13 11 17 22 18 17 17 16 14 12 9

GFSMW_850_spd_003.txt.gz
Wind_Speed
7 1 5 5 10 12 7 4 4 6 4 8 10 13 16 19 22 24 24 24 24 25 27 28 27 24 24 24 23 22 22 21 18 18 17 20 23 22 24 22 24 20 20
11 10 9 7 3 2 4 4 6 8 9 12 14 16 19 21 24 26 28 30 30 29 29 30 33 31 30 29 29 28 26 24 21 18 17 16 25 26 29 33 26 27 20
10 6 3 1 3 4 5 8 10 11 12 14 17 21 24 26 28 30 34 35 37 37 35 36 38 37 36 35 34 32 30 29 25 21 16 6 7 26 28 34 34 28 30
6 4 4 6 5 5 7 10 12 14 14 17 19 22 26 30 30 31 35 35 36 39 41 40 38 40 38 35 33 32 32 32 29 22 17 15 15 12 25 38 34 37 34
6 3 4 5 6 7 9 11 13 13 14 14 19 26 31 33 36 39 36 34 32 34 39 43 40 40 37 32 33 32 27 25 22 18 17 17 18 23 24 28 37 38 36
2 1 3 3 5 7 8 7 5 8 15 22 28 32 35 39 41 37 32 31 32 31 32 37 41 37 34 27 24 21 20 16 11 13 14 18 19 22 26 30 33 35 39
4 5 8 6 6 3 5 11 16 20 25 29 34 35 39 37 32 34 37 37 33 32 32 29 35 31 28 33 31 21 15 16 16 18 21 22 28 26 26 27 33 35 36
4 5 3 4 2 7 13 20 26 31 35 37 36 32 30 31 32 35 35 35 30 27 22 20 23 24 29 22 14 17 22 25 27 30 26 22 25 25 25 26 28 35 32
10 5 2 4 6 13 21 25 29 31 32 29 28 30 34 36 33 32 32 31 28 24 24 23 22 18 17 15 25 31 30 14 15 17 22 24 25 26 25 27 29 29 31
6 5 5 6 13 21 25 28 27 28 27 28 31 35 41 37 31 30 27 26 21 19 16 12 15 20 25 22 17 15 13 17 20 22 26 28 29 30 30 30 30 31 34
5 9 10 16 22 26 26 23 25 28 27 29 35 41 43 35 33 30 25 21 16 12 11 15 19 15 6 10 14 17 19 21 24 27 30 33 33 33 32 31 31 32 32
14 18 19 21 24 28 26 28 25 31 32 34 40 46 51 34 26 22 17 17 13 15 13 10 7 7 11 15 18 21 23 25 28 29 28 30 31 32 31 31 32 32 33
22 22 21 24 26 26 28 30 30 32 34 40 46 48 39 23 20 20 16 11 9 6 8 11 13 15 17 19 22 24 27 28 28 29 30 30 29 31 30 30 31 32 32
25 22 23 26 25 26 30 33 33 32 37 42 43 37 26 15 16 13 10 11 6 7 10 14 19 23 25 25 27 29 29 30 30 29 29 30 32 35 37 39 41 40 41
23 18 27 31 28 26 30 30 29 34 38 37 28 25 14 9 13 13 12 10 14 18 12 17 22 24 27 28 28 28 26 26 29 32 36 38 40 42 44 44 47 45 45
19 25 30 32 28 30 33 29 33 33 28 20 18 16 12 11 12 16 15 12 10 14 16 20 24 27 28 28 24 25 27 31 37 41 42 42 41 38 34 32 32 31 31
24 29 31 33 30 31 26 33 31 23 16 15 13 12 12 13 13 13 14 15 17 18 19 22 27 29 27 26 26 29 33 35 39 41 38 35 33 31 32 32 31 31 30
23 28 33 31 33 29 35 29 22 17 15 13 9 10 12 14 16 19 21 21 18 21 26 27 27 27 27 27 28 32 38 39 36 32 30 30 31 31 30 30 31 31 32
18 25 29 27 29 33 27 21 20 10 3 5 10 18 19 19 19 20 21 24 24 24 24 25 26 25 26 30 34 34 32 32 31 27 25 26 28 27 26 27 31 32 34
22 23 23 29 33 19 16 21 20 10 10 22 17 19 19 21 23 23 23 22 23 25 25 23 25 28 32 32 28 27 27 28 27 27 27 26 27 28 26 25 27 31 32
22 20 29 31 19 15 20 18 11 10 18 20 18 20 22 22 22 22 22 25 24 23 24 27 29 29 26 26 24 24 21 22 26 27 26 29 29 26 25 25 28 30 28
24 30 27 18 15 17 15 15 13 18 19 19 21 22 21 21 22 23 23 22 24 26 28 30 29 28 25 22 24 20 17 20 22 23 26 30 27 24 26 25 22 23 21
28 28 24 18 16 16 15 15 17 17 18 20 20 20 22 22 22 21 22 24 24 26 27 27 30 31 28 26 23 18 20 22 18 19 23 26 24 24 19 16 18 18 18
29 28 25 24 20 16 13 14 15 15 18 19 21 23 23 22 20 20 23 22 24 26 26 28 30 30 31 28 22 25 26 20 18 21 22 24 18 14 12 12 11 11 9
28 25 24 18 15 13 15 16 15 17 17 19 21 23 23 20 20 21 23 23 22 24 26 27 25 28 30 26 24 25 24 18 20 20 16 19 16 15 12 12 13 11 9
24 21 19 16 16 17 19 17 16 17 18 19 22 24 23 22 23 23 25 21 22 24 23 23 20 22 22 21 23 22 17 16 16 13 14 17 16 17 18 17 16 16 13

GFSMW_850_spd_006.txt.gz
Wind_Speed
9 6 7 9 3 5 9 4 3 3 4 7 10 12 14 15 18 21 23 24 27 31 33 34 32 30 30 28 26 25 27 27 27 27 28 26 22 18 18 21 21 21 23
12 12 11 9 8 4 2 4 5 8 8 10 14 17 20 22 23 25 27 30 31 32 35 38 39 38 37 35 33 32 32 32 32 30 31 28 22 27 26 28 29 28 28
10 7 6 4 1 1 4 6 8 11 13 16 18 20 21 22 27 27 26 27 32 33 35 34 39 43 43 42 40 39 38 37 36 34 28 13 18 24 23 26 31 31 32
5 3 0 4 6 8 9 10 12 14 15 14 14 18 24 29 31 34 36 36 31 29 30 31 31 36 45 49 47 44 41 39 38 36 32 31 30 21 19 26 28 31 31
4 5 8 10 11 11 9 8 7 7 9 13 20 24 29 32 34 35 33 31 32 33 34 34 35 34 35 45 50 43 39 36 33 30 24 22 19 16 13 19 25 33 36
4 5 5 4 3 0 2 4 7 12 18 23 28 31 30 31 33 35 36 38 39 39 38 36 34 36 35 37 36 38 31 26 25 18 15 11 7 8 9 17 26 30 39
6 5 3 2 2 4 8 13 20 24 27 29 30 30 30 30 33 37 39 39 38 38 37 33 29 28 23 25 27 27 28 26 22 17 14 17 18 21 20 23 26 30 31
7 6 5 5 6 10 17 23 26 29 30 28 27 26 27 32 37 39 40 37 34 35 31 29 18 18 20 19 13 10 10 13 16 23 26 26 25 19 15 19 23 28 31
9 8 8 8 11 20 25 26 27 26 25 24 27 31 36 40 43 43 40 31 29 30 22 16 11 8 9 12 19 17 19 27 21 19 17 18 19 16 18 22 23 22 26
11 13 14 16 16 19 22 24 23 23 24 29 31 35 41 45 46 44 29 23 27 21 11 7 8 14 19 22 25 26 17 17 15 14 16 18 20 22 24 26 27 27 29
14 17 20 21 21 23 25 24 25 27 30 32 35 39 44 47 45 31 19 16 14 8 6 9 14 19 16 13 11 12 13 16 19 21 23 26 26 27 26 26 26 26 25
22 24 23 25 23 28 27 25 28 31 32 31 36 44 43 40 29 21 9 7 5 5 8 15 9 8 13 17 18 20 21 22 23 25 27 27 27 29 28 27 27 27 26
27 26 27 20 25 28 27 25 28 31 29 34 39 39 37 31 21 9 8 8 8 8 11 14 15 17 16 21 23 24 25 26 27 28 28 28 27 28 27 28 29 31 31
25 26 22 21 26 28 25 28 31 28 33 36 32 31 27 25 13 7 8 10 7 14 18 18 14 17 21 22 27 29 29 30 28 26 27 29 30 32 35 37 38 39 40
21 21 19 23 24 25 29 34 27 32 35 30 26 24 20 20 15 13 12 14 19 24 23 20 17 19 23 28 30 29 26 27 29 31 34 35 36 36 37 36 37 35 35
21 19 19 21 22 26 30 30 34 38 29 23 22 15 17 18 15 12 13 16 21 24 24 22 22 24 27 28 26 25 26 29 32 35 38 39 36 33 30 27 25 25 27
16 23 23 26 28 30 29 34 33 27 22 23 11 7 8 14 19 21 22 21 23 21 20 24 27 27 25 24 24 25 29 34 37 37 35 33 31 28 28 27 27 26 26
18 20 23 29 29 29 35 31 24 25 26 17 17 18 17 15 18 20 22 23 24 24 25 25 25 26 25 26 30 33 34 34 33 31 30 28 26 25 24 25 27 28 29
24 26 27 25 30 35 29 22 25 26 16 14 20 20 19 20 23 24 23 23 23 24 25 24 25 27 30 31 31 29 30 31 30 27 23 23 23 23 24 25 28 29 27
22 29 22 29 33 27 17 21 20 16 15 19 21 20 21 23 23 23 23 24 25 24 24 26 28 29 29 28 28 26 28 29 27 24 25 21 23 24 27 26 28 30 30
26 20 27 30 28 20 20 20 15 16 18 21 19 22 22 22 22 23 23 22 23 26 27 28 28 27 27 28 25 25 23 22 25 27 25 23 22 27 26 24 26 28 28
24 22 28 30 25 22 22 19 17 14 20 18 20 21 21 22 23 23 22 23 25 27 28 30 31 30 29 25 25 22 19 20 23 23 21 23 28 31 25 22 18 18 20
20 26 27 29 25 21 17 17 16 18 15 19 20 21 22 24 24 23 24 25 26 27 29 30 33 34 32 29 25 21 21 24 18 17 19 23 26 23 18 15 15 15 15
25 31 28 25 22 16 14 18 22 18 17 18 20 21 23 25 25 24 24 25 26 27 28 30 31 32 32 30 26 28 27 23 17 21 21 20 20 16 14 11 12 12 10
30 28 26 22 21 18 19 20 21 16 17 19 20 21 23 25 26 24 23 24 24 24 28 27 28 28 29 28 25 25 25 19 19 18 17 17 18 18 16 13 12 13 12
31 27 23 21 23 23 20 20 20 19 19 20 21 22 23 25 25 23 24 22 21 24 23 24 24 21 22 22 23 24 19 16 16 13 13 16 18 19 21 21 16 13 15

GFSMW_850_spd_009.txt.gz
Wind_Speed
5 7 10 8 5 5 10 9 7 7 6 8 9 10 12 14 17 20 21 24 25 26 27 29 32 34 37 39 39 35 33 31 30 28 28 29 29 27 26 23 19 18 22
15 12 11 10 8 7 8 9 10 10 11 12 14 16 17 18 20 22 25 27 28 30 33 33 34 34 36 37 40 43 42 40 37 34 25 20 22 24 26 26 23 21 21
11 9 8 7 6 5 7 8 9 10 12 13 13 13 15 18 23 28 32 33 30 28 28 29 31 33 33 34 36 40 46 48 44 41 33 18 22 17 20 26 25 23 23
5 3 2 2 4 5 5 7 6 5 5 9 14 18 23 26 27 28 28 29 28 31 32 34 34 34 35 38 37 37 41 44 45 40 44 40 36 22 22 24 26 27 24
2 2 3 3 1 2 2 3 4 7 13 19 23 26 27 27 28 30 35 36 37 36 37 36 35 35 34 36 37 39 39 38 41 41 33 31 34 29 21 23 19 19 19
3 3 2 5 6 4 3 4 10 17 23 27 29 28 26 28 32 35 39 41 41 41 40 38 34 32 30 29 29 29 24 16 24 29 27 27 23 19 11 11 14 16 18
6 3 1 2 3 6 11 17 22 26 29 31 30 27 27 29 33 37 41 45 45 41 37 33 29 26 24 21 15 12 15 14 11 10 11 10 11 16 16 18 18 18 19
11 8 5 6 11 15 20 24 27 28 28 26 24 25 27 31 38 43 44 44 41 37 30 26 22 16 11 6 6 10 9 6 10 13 15 13 12 12 13 14 13 16 18
12 12 14 17 20 20 23 25 25 24 22 22 24 26 30 35 41 43 42 38 30 23 18 12 5 5 6 10 11 17 21 26 20 21 24 19 17 16 15 19 20 14 21
14 18 20 20 21 21 20 22 21 19 21 25 26 28 33 39 42 41 36 28 21 10 6 6 6 7 8 10 14 12 14 14 14 14 12 11 13 16 16 16 18 16 21
17 19 19 19 20 15 20 23 22 22 25 27 27 33 39 40 36 33 25 17 6 4 5 7 8 12 17 12 12 14 16 16 16 16 17 19 21 22 21 19 19 20 21
20 21 19 19 14 18 25 23 19 22 26 27 32 36 35 33 29 23 16 4 5 4 6 12 19 26 18 13 15 18 19 21 22 22 23 23 22 22 23 23 21 19 20
24 25 20 16 19 24 20 21 26 27 28 33 36 36 30 27 22 16 10 8 10 10 14 20 23 21 15 13 16 18 23 26 27 27 24 22 22 23 22 24 23 24 25
20 19 16 16 21 18 21 22 25 28 33 35 31 25 23 22 20 16 15 14 14 18 22 24 18 20 20 20 22 24 27 29 27 25 26 27 28 28 27 26 25 25 25
19 16 17 19 17 20 25 26 26 31 31 28 25 25 19 15 18 17 17 18 19 20 21 23 22 21 21 22 27 30 28 26 27 28 30 32 32 33 32 27 24 23 25
10 11 13 17 22 24 27 29 34 30 23 25 24 18 17 16 17 17 19 21 22 22 22 21 22 24 25 24 24 24 24 27 28 28 31 31 31 29 27 25 23 23 24
10 17 15 17 24 26 29 35 33 22 23 18 12 14 16 17 19 21 23 25 24 23 22 21 23 23 23 23 24 26 28 29 29 27 26 25 24 23 20 20 22 23 24
18 17 21 25 23 27 31 30 23 24 21 12 13 17 19 21 23 24 24 23 22 23 24 23 22 23 25 26 27 27 27 24 24 24 24 21 20 19 18 20 21 22 23
17 22 24 23 24 28 30 25 24 24 18 14 17 20 20 23 24 24 24 24 25 24 23 23 25 26 25 25 26 26 23 22 23 22 18 18 20 19 19 20 24 26 26
23 25 23 19 25 27 25 23 22 20 17 16 21 21 22 23 23 23 24 24 23 24 24 25 25 25 26 26 25 22 20 22 20 19 19 20 18 19 18 23 26 26 24
28 27 21 22 26 26 26 23 21 23 19 17 21 20 21 22 22 23 24 24 24 24 25 26 26 24 24 25 22 20 17 18 20 20 21 19 18 20 26 25 21 21 21
26 22 22 27 28 25 24 19 15 15 17 20 18 19 21 21 22 25 24 24 24 25 27 28 24 21 23 22 22 17 18 16 20 19 17 17 23 25 23 17 15 16 17
29 27 28 31 29 23 20 19 16 19 22 19 17 18 20 21 23 24 25 24 22 23 23 21 23 23 22 20 21 21 22 20 16 13 17 19 19 17 14 12 12 13 12
32 30 30 30 28 22 18 19 20 20 21 19 18 19 21 21 23 24 23 21 19 19 19 21 22 22 22 20 21 22 21 19 16 16 16 15 13 13 12 9 8 9 10
33 34 33 28 25 24 22 24 19 20 20 18 19 20 21 22 23 22 20 20 20 20 20 19 20 21 20 21 22 23 22 17 16 11 11 12 14 15 15 12 8 10 12
34 35 33 27 25 24 20 15 20 20 18 18 18 19 20 21 21 21 20 17 16 19 18 19 20 17 18 19 20 21 16 14 11 9 10 12 15 17 17 16 14 12 12